Wind_Speed
8 8 8 9 9 9 10 10 11 11 12 13 14 14 14 15 15 16 17 17 17 17 18 19 20 20 21 22 23 24 25 26 27 28 28 29 29 30
9 9 10 10 10 10 11 11 12 13 14 14 15 15 15 16 17 17 18 18 19 19 20 21 22 23 23 24 25 26 27 28 29 29 30 30 30 31
10 11 11 11 11 12 13 13 14 15 15 16 16 17 17 18 19 19 20 20 21 22 22 23 24 25 26 27 27 28 29 29 29 30 32 33 33 33
12 12 12 12 13 14 14 15 16 16 17 17 18 18 19 20 20 21 22 23 23 24 25 26 27 28 28 29 30 31 31 31 32 33 34 35 36 36
13 13 13 14 14 15 16 16 16 17 18 19 19 20 20 21 22 23 24 25 26 27 28 29 30 30 31 32 33 34 35 35 36 36 37 37 37 38
14 14 15 15 16 17 17 18 18 19 19 20 21 22 22 24 25 26 27 28 29 30 31 32 33 34 35 36 36 37 37 37 38 38 38 38 38 39
16 16 17 17 18 18 18 19 20 21 22 23 23 24 25 26 27 28 29 30 31 32 33 35 36 37 37 38 39 39 39 39 39 39 40 40 40 41
17 17 18 19 19 19 20 21 22 23 24 24 25 26 27 28 29 30 31 32 33 35 36 37 38 39 40 41 41 41 41 42 42 42 43 43 43 44
19 20 20 20 21 21 22 23 24 25 26 27 27 28 30 31 32 33 33 34 35 37 38 39 40 41 42 42 43 43 43 43 44 44 45 46 46 47
20 21 21 21 22 23 24 24 25 27 28 29 30 31 32 33 34 35 35 36 37 39 40 41 42 43 43 44 44 44 44 45 45 46 47 48 48 49
21 21 22 23 24 25 26 26 27 28 30 31 32 33 35 36 36 37 38 39 40 41 42 43 43 44 44 44 45 45 45 46 46 47 48 49 50 50
21 22 23 24 26 27 27 28 30 31 33 34 35 36 37 38 38 39 41 42 42 43 44 45 45 45 44 44 45 45 46 47 48 49 49 50 51 51
22 23 25 26 27 28 29 30 32 33 35 36 36 37 39 40 41 42 43 44 44 45 46 47 47 47 47 46 46 47 48 48 48 49 50 51 52 53
24 25 26 28 29 30 31 32 34 35 36 37 38 39 40 41 42 43 43 44 45 46 48 48 48 48 48 47 47 47 48 49 49 50 51 51 52 53
26 27 28 29 31 32 33 35 36 37 37 38 39 40 41 42 43 44 44 45 47 48 49 50 49 49 48 48 48 48 48 49 50 50 50 51 51 52
27 28 29 31 32 33 34 35 36 37 38 39 40 41 42 43 45 45 46 47 48 49 49 49 49 49 48 48 48 48 49 49 49 50 49 49 50 50
28 29 31 32 33 34 35 36 37 38 39 40 41 42 44 45 45 46 47 48 49 48 48 49 49 49 48 48 48 48 48 48 49 49 49 48 48 49
30 30 31 32 33 34 36 37 38 39 40 41 42 44 44 45 46 47 48 48 48 48 48 48 49 48 47 46 47 48 47 47 47 48 48 47 46 46
31 31 32 33 34 35 36 38 39 40 41 42 43 45 46 46 47 47 48 48 48 48 48 48 48 47 45 45 46 47 47 46 46 46 46 47 46 46
32 33 33 34 35 37 37 39 40 41 42 43 44 46 46 46 47 47 47 48 48 47 47 47 46 46 45 45 45 46 47 47 47 46 46 47 46 46
33 34 35 36 37 38 39 40 42 43 43 43 44 45 46 46 47 47 47 47 47 46 46 45 45 46 46 46 45 45 46 47 48 47 47 47 46 46
34 35 36 37 38 39 40 41 42 43 43 43 44 45 45 46 46 46 46 46 46 46 45 45 45 45 46 46 46 46 45 46 46 47 48 48 47 47
36 36 37 38 39 40 41 42 43 43 43 43 44 44 45 46 46 46 46 46 46 46 46 45 45 46 46 46 47 47 46 45 45 45 46 47 48 47
Wind_Direction
293 295 298 300 301 302 302 303 305 307 308 310 311 311 311 311 310 310 309 308 306 302 300 299 297 295 293 292 290 289 288 288 287 286 284 282 282 282
290 292 295 298 301 302 301 302 304 305 306 308 310 311 310 310 310 309 308 307 305 304 304 302 301 299 296 295 293 292 290 289 287 285 283 282 282 282
289 290 292 295 297 301 302 300 302 303 305 307 307 307 307 306 307 308 307 305 305 304 303 302 301 299 297 296 295 294 293 292 290 288 286 285 285 284
289 291 294 296 298 300 301 302 301 301 302 304 306 306 305 305 306 306 306 305 305 304 303 302 301 299 297 296 295 295 294 293 292 291 289 287 286 286
286 290 294 297 298 299 300 302 303 302 302 303 304 304 304 303 304 304 304 305 304 303 302 301 301 300 299 298 296 295 294 293 292 292 291 290 289 288
285 289 293 295 297 299 300 302 304 305 304 303 303 303 303 303 303 304 305 305 304 303 302 302 301 300 300 299 298 296 294 293 293 292 291 290 289 288
285 289 292 294 297 298 300 301 303 304 304 304 303 303 303 304 304 305 305 304 304 304 302 302 302 302 301 300 299 297 295 294 293 292 291 291 290 290
285 288 292 294 296 297 298 300 301 302 303 304 303 303 304 304 304 305 305 304 303 303 303 302 302 302 302 300 299 298 296 294 293 292 291 291 290 290
284 286 289 292 295 298 299 299 300 300 301 302 303 304 304 304 305 305 305 304 304 303 303 302 302 302 301 300 299 298 297 295 294 292 292 291 291 290
283 285 288 292 295 296 297 299 301 302 301 301 302 303 304 305 306 306 305 305 305 305 304 304 303 302 302 300 299 298 297 296 295 294 293 292 291 290
283 286 290 293 295 296 297 299 300 300 301 303 303 304 304 305 305 306 306 306 306 306 305 305 304 303 302 300 299 299 298 297 297 296 295 294 292 291
285 288 291 294 296 297 297 298 299 301 302 303 304 305 306 306 306 306 306 306 306 307 306 306 305 304 302 300 300 299 298 298 298 297 296 295 294 294
286 289 291 294 296 297 297 299 300 301 302 304 305 306 306 306 306 306 306 306 307 308 307 307 306 305 304 302 301 300 299 299 299 298 298 297 296 296
289 291 292 294 295 296 297 298 300 301 302 303 305 305 306 306 306 306 306 307 307 307 307 307 307 306 305 303 302 301 301 300 299 299 299 299 298 298
291 292 294 295 295 296 298 299 300 301 303 304 305 305 306 306 306 307 307 306 307 307 308 308 307 307 306 305 304 303 302 302 302 301 301 301 300 299
292 294 296 298 298 298 299 301 302 303 304 304 304 305 305 306 306 307 307 306 307 308 308 308 308 307 307 306 305 304 304 304 304 304 304 303 302 301
293 295 297 298 299 300 301 302 303 304 305 306 306 306 306 307 307 307 307 308 308 308 309 309 308 308 308 307 306 306 306 306 306 306 305 305 304 303
295 296 298 299 300 301 303 304 304 305 306 306 307 307 307 308 308 308 308 308 308 309 309 309 309 308 308 307 306 306 307 307 307 307 308 308 307 306
298 298 299 301 301 302 304 305 305 306 307 307 308 308 308 308 309 309 309 309 310 310 309 309 310 309 308 308 307 307 307 307 307 308 309 309 309 308
297 298 299 301 302 303 304 305 306 307 308 309 309 309 309 309 310 311 311 311 311 311 311 310 310 310 309 309 308 308 308 308 308 308 309 309 309 309
297 298 299 301 303 305 306 306 307 307 308 309 309 310 310 311 312 312 313 313 313 313 312 312 311 312 311 310 310 310 310 309 309 309 309 309 309 309
298 298 300 302 304 305 306 307 308 308 308 308 309 310 311 312 312 313 313 314 314 314 314 313 312 312 313 312 311 310 310 310 311 311 311 311 311 311
299 300 301 302 304 305 306 308 308 308 308 309 310 311 312 312 313 314 314 314 314 314 314 314 313 313 314 314 313 312 310 310 311 311 312 312 312 313
Height
5862 5861 5860 5859 5858 5858 5857 5856 5855 5854 5852 5851 5849 5848 5846 5845 5843 5841 5840 5838 5837 5835 5834 5832 5831 5829 5828 5826 5824 5823 5821 5819 5818 5816 5815 5813 5812 5810
5860 5859 5858 5857 5856 5855 5854 5853 5852 5851 5850 5848 5846 5845 5843 5842 5840 5838 5836 5835 5833 5831 5829 5828 5826 5824 5822 5820 5818 5816 5814 5812 5810 5808 5807 5805 5803 5801
5857 5856 5855 5854 5854 5853 5851 5850 5849 5848 5846 5845 5843 5841 5840 5838 5836 5834 5832 5830 5828 5826 5824 5822 5820 5818 5815 5813 5811 5809 5806 5804 5802 5800 5798 5796 5794 5792
5854 5853 5852 5851 5850 5849 5848 5847 5845 5844 5843 5841 5839 5837 5836 5834 5832 5830 5827 5825 5823 5820 5818 5815 5813 5810 5808 5805 5803 5800 5798 5795 5793 5790 5788 5786 5784 5781
5851 5850 5849 5848 5847 5846 5844 5843 5841 5840 5838 5837 5835 5833 5831 5829 5827 5824 5822 5819 5817 5814 5811 5808 5805 5803 5799 5796 5794 5791 5788 5785 5782 5780 5777 5774 5772 5769
5847 5846 5845 5844 5843 5842 5841 5839 5837 5836 5834 5832 5830 5828 5825 5823 5821 5818 5815 5812 5809 5806 5803 5800 5797 5794 5790 5787 5784 5780 5777 5774 5771 5768 5765 5763 5760 5757
5843 5842 5841 5840 5839 5837 5836 5834 5833 5831 5829 5827 5824 5822 5819 5817 5814 5811 5808 5805 5802 5798 5795 5791 5787 5784 5780 5776 5772 5768 5765 5762 5759 5756 5753 5751 5748 5745
5838 5838 5837 5835 5834 5833 5831 5829 5828 5825 5823 5821 5818 5816 5813 5810 5807 5804 5801 5798 5794 5790 5786 5782 5777 5773 5769 5765 5761 5757 5753 5750 5746 5743 5740 5737 5734 5731
5833 5833 5832 5831 5829 5828 5826 5824 5822 5819 5817 5815 5812 5809 5806 5803 5800 5796 5792 5788 5784 5780 5776 5772 5767 5762 5757 5752 5748 5744 5740 5736 5733 5729 5726 5723 5719 5716
5828 5827 5826 5825 5823 5822 5820 5818 5815 5813 5811 5808 5805 5802 5798 5794 5791 5787 5783 5779 5774 5769 5765 5761 5755 5751 5745 5740 5736 5731 5727 5723 5719 5715 5711 5707 5704 5700
5822 5821 5820 5819 5817 5816 5814 5812 5809 5806 5803 5800 5797 5793 5789 5785 5781 5777 5772 5768 5763 5758 5753 5748 5743 5739 5734 5728 5723 5718 5713 5709 5704 5700 5696 5692 5688 5684
5816 5815 5814 5813 5811 5809 5807 5805 5802 5799 5796 5792 5788 5784 5780 5776 5771 5766 5761 5757 5751 5747 5741 5736 5731 5725 5722 5717 5710 5705 5700 5695 5690 5685 5680 5676 5671 5667
5810 5809 5808 5806 5804 5802 5799 5797 5794 5791 5787 5783 5779 5775 5771 5766 5760 5755 5750 5745 5740 5734 5729 5723 5718 5712 5707 5703 5698 5691 5685 5680 5675 5670 5664 5659 5654 5649
5804 5803 5801 5799 5797 5794 5792 5789 5785 5782 5778 5774 5770 5766 5761 5756 5750 5744 5739 5733 5728 5722 5716 5710 5705 5699 5694 5689 5684 5678 5672 5666 5661 5655 5649 5644 5638 5632
5798 5796 5794 5792 5789 5786 5783 5780 5776 5772 5768 5765 5760 5756 5750 5745 5740 5734 5728 5722 5716 5710 5703 5697 5691 5686 5680 5674 5669 5664 5658 5653 5646 5641 5635 5628 5622 5617
5791 5788 5786 5783 5780 5777 5774 5770 5766 5762 5758 5754 5750 5745 5740 5734 5729 5723 5717 5711 5705 5699 5691 5684 5678 5672 5667 5660 5654 5649 5643 5638 5632 5626 5620 5614 5607 5601
5783 5781 5778 5775 5772 5768 5765 5761 5757 5753 5748 5744 5739 5734 5729 5723 5717 5711 5705 5699 5693 5686 5680 5673 5665 5659 5653 5647 5641 5635 5629 5624 5617 5612 5606 5601 5594 5587
5775 5772 5770 5766 5763 5759 5755 5751 5747 5743 5738 5733 5728 5723 5717 5712 5706 5699 5693 5686 5680 5673 5667 5660 5654 5648 5642 5635 5628 5622 5617 5611 5605 5599 5593 5587 5582 5575
5767 5764 5761 5757 5754 5750 5746 5742 5737 5733 5728 5723 5717 5712 5706 5700 5694 5687 5680 5674 5667 5661 5654 5647 5641 5635 5629 5624 5617 5609 5604 5598 5593 5587 5581 5574 5568 5562
5759 5756 5752 5749 5745 5741 5737 5732 5727 5722 5717 5712 5706 5700 5694 5688 5682 5675 5668 5662 5655 5648 5642 5635 5628 5622 5616 5611 5606 5599 5591 5585 5580 5574 5568 5562 5556 5549
5750 5747 5743 5739 5736 5731 5727 5722 5717 5712 5707 5701 5695 5689 5683 5677 5670 5663 5657 5650 5643 5636 5630 5623 5617 5611 5604 5599 5594 5588 5581 5573 5566 5561 5555 5549 5544 5538
5741 5737 5734 5730 5726 5722 5717 5712 5707 5701 5696 5690 5684 5678 5672 5666 5659 5652 5646 5639 5632 5625 5619 5612 5606 5600 5594 5588 5582 5576 5570 5563 5555 5548 5541 5535 5529 5523
5731 5728 5724 5720 5716 5711 5707 5702 5696 5691 5685 5680 5674 5668 5661 5655 5648 5641 5635 5628 5622 5615 5608 5602 5595 5589 5582 5576 5570 5564 5558 5551 5545 5538 5531 5523 5516 5510